Flag for Canada Weather past 2 weeks in Kelowna, British Columbia, Canada

Now
90 °F

Sunny.


Feels Like: 86 °F
Forecast: 52 / 92 °F
Wind: 6 mph from Northeast

Location: Kelowna Airport

Current Time: Jul 31, 2014 at 3:13:29 PM

Latest Report: Jul 31, 2014 at 2:00 PM


Visibility: 9 mi

Pressure: 30.01 "Hg

Humidity: 20%

Dew point: 43 °F

Location of KelownaLocation

Historic Weather in Kelowna — Graph

°F

Kelowna temperature yesterday

Maximum temperature yesterday: 95 °F (at 4:00 PM)
Minimum temperature yesterday: 55 °F (at 5:00 AM)
Average temperature yesterday: 76 °F

Past Weeks' High & Low Weather Summary

 TemperatureHumidityPressure
High99 °F (Jul 16, 3:00 PM)94% (Jul 23, 6:00 PM)30.19 "Hg (Jul 23, 6:00 PM)
Low48 °F (Jul 26, 6:00 AM)13% (Jul 30, 2:00 PM)29.68 "Hg (Jul 17, 4:00 PM)
Average71 °F51%29.94 "Hg
* Reported Jul 16 2:00 PM — Jul 31 2:00 PM, Kelowna, Weather by CustomWeather, © 2014

Note: Actual official high and low records may vary slightly from our data, if they occured in-between our weather recording intervals... More about our weather records

Advertising

Kelowna weather history for previous 24 hours

 ConditionsComfort  
Time TempWeatherWind HumidityBarometerVisibility
2:00 PM
Jul 31
90 °FSunny.6 mph20%30.01 "Hg9 mi
1:00 PM88 °FSunny.5 mph22%30.03 "Hg9 mi
12:00 PM86 °FSunny.7 mph25%30.04 "Hg9 mi
11:00 AM82 °FSunny.5 mph25%30.06 "Hg9 mi
10:00 AM79 °FSunny.2 mph26%30.07 "Hg9 mi
9:00 AM75 °FSunny.5 mph29%30.07 "Hg9 mi
8:00 AM70 °FSunny.3 mph40%30.07 "Hg9 mi
7:00 AM59 °FSunny.3 mph72%30.06 "Hg9 mi
6:00 AM55 °FClear.2 mph63%30.06 "Hg9 mi
5:00 AM54 °FClear.No wind72%30.05 "Hg9 mi
4:00 AM54 °FClear.2 mph77%30.04 "Hg9 mi
3:00 AM55 °FClear.3 mph67%30.03 "Hg9 mi
2:00 AM59 °FClear.2 mph63%30.02 "Hg9 mi
1:00 AM63 °FClear.5 mph59%30.01 "Hg9 mi
12:00 AM63 °FClear.No wind59%30.01 "Hg9 mi
11:00 PM
Jul 30
68 °FClear.No wind49%29.99 "Hg9 mi
10:00 PM68 °FClear.3 mph60%29.97 "Hg9 mi
9:00 PM79 °FSunny.No wind42%29.94 "Hg9 mi
8:00 PM88 °FSunny.6 mph25%29.91 "Hg9 mi
7:00 PM91 °FSunny.12 mph20%29.91 "Hg9 mi
6:00 PM93 °FSunny.12 mph19%29.92 "Hg9 mi
5:00 PM95 °FSunny.9 mph15%29.92 "Hg9 mi
4:00 PM95 °FSunny.7 mph15%29.94 "Hg9 mi
3:00 PM93 °FSunny.3 mph13%29.96 "Hg9 mi
Weather by CustomWeather, © 2014

See weather overviewHow to use our weather pages